Location: Betpouey
(42.8833°N, 0.0333°E)
Time: 21:54:36
(UTC+00:00)

Cosmos 1680 Rocket - Pass Details

Date: 01 December 2020
Orbit: 760 x 781 km, 74.1° (Epoch: 18 January)

Event Time Altitude Azimuth Distance (km) Brightness Sun altitude
Rises 17:41:35 0° 168° (SSE) 3,227 6.8 -13.4°
Reaches altitude 10° 17:44:13 10° 156° (SSE) 2,309 5.9 -13.9°
Maximum altitude 17:48:37 28° 99° (E) 1,431 4.4 -14.6°
Enters shadow 17:50:25 23° 67° (ENE) 1,617 4.6 -15.0°
